[ hide orbit diagram ]
For accurate long-term ephemerides, please instead use our Horizons system.This orbit viewer was implemented using two-body methods, and hence should not be used for determining accurate long-term trajectories (over several years or decades) or planetary encounter circumstances.
Orbital Elements at Epoch 2459200.5 (2020-Dec-17.0) TDB
Reference: JPL 22 (heliocentric ecliptic J2000)
Element | Value | Uncertainty (1-sigma) | Units |
e | .03626159717912759 | 4.328e-08 | |
a | 2.873463296579082 | 1.6498e-08 | au |
q | 2.769266928009523 | 1.273e-07 | au |
i | 2.825108047354813 | 5.1199e-06 | deg |
node | 172.9083554826128 | 7.8401e-05 | deg |
peri | 242.9179956148002 | 0.00010241 | deg |
M | 347.0067838915226 | 6.3902e-05 | deg |
tp | 2459264.712720375325 (2021-Feb-19.21272038) | 0.00031572 | TDB |
period | 1779.126826039206 4.87 | 1.5322e-05 4.195e-08 | d yr |
n | .2023464514901687 | 1.7426e-09 | deg/d |
Q | 2.977659665148641 | 1.7096e-08 | au |
|
| | Orbit Determination Parameters
Additional Information
|
[ show covariance matrix ]
Physical Parameter Table
Parameter |
Symbol |
Value |
Units |
Sigma |
Reference |
Notes |
absolute magnitude |
H |
15.20 |
|
n/a |
E2021B55 |
|
diameter |
diameter |
3.795 |
km |
0.698 |
urn:nasa:pds:neowise_diameters_albedos::2.0[mainbelt] (http://adsabs.harvard.edu/abs/2011ApJ...741...68M) |
|
geometric albedo |
albedo |
0.123 |
|
0.036 |
urn:nasa:pds:neowise_diameters_albedos::2.0[mainbelt] (http://adsabs.harvard.edu/abs/2011ApJ...741...68M) |
|
|
105358 (2000 QO110) Discovered 2000-Aug-24 by LINEAR at Socorro |
Reference: 20051019/Numbers.arc | Last Updated: 2005-10-26 |
|
|